This demonstration page uses our WeatherBlox Daily Observations layout. Learn more.

Left ArrowRight Arrow

Hourly Observations for April 1, 2022

Temp ( °F °C ) Dew Point ( °F °C ) Humidity (%) Winds ( mph kmh ) Pressure ( in mb ) Visibility ( mi km ) Precip ( " mm )
12:56 am 00:56 Clear 28 -2.2 23 -4.9 82 82 Calm 29.99 1016 10 16 0.00 0.00
1:56 am 01:56 Clear 27 -3 22 -5.8 81 81 Calm 30.00 1016 10 16 0.00 0.00
2:56 am 02:56 Clear 28 -2.4 23 -4.9 83 83 Calm 30.01 1016 10 16 0.00 0.00
3:56 am 03:56 Clear 26 -3.3 23 -5.2 87 87 Calm 30.02 1017 10 16 0.00 0.00
4:56 am 04:56 Clear 25 -4 22 -5.6 89 89 Calm 30.02 1017 10 16 0.00 0.00
5:56 am 05:56 Clear 25 -3.8 22 -5.4 89 89 Calm 30.02 1017 10 16 0.00 0.00
6:56 am 06:56 Clear 26 -3.6 23 -5 90 90 Calm 30.04 1017 7 11 0.00 0.00
7:56 am 07:56 Sunny 27 -2.6 24 -4.3 88 88 Calm 30.08 1019 10 16 0.00 0.00
8:56 am 08:56 Sunny 31 -0.7 26 -3.6 81 81 SE 5 7 30.08 1019 10 16 0.00 0.00
9:56 am 09:56 Sunny 36 2.3 27 -3 68 68 S 3 6 30.09 1019 10 16 0.00 0.00
10:56 am 10:56 Sunny 43 6.3 28 -2.3 54 54 SSE 5 7 30.10 1019 10 16 0.00 0.00
11:56 am 11:56 Sunny 49 9.3 25 -4 39 39 SE 10 17 30.08 1019 10 16 0.00 0.00
12:56 pm 12:56 Mostly Sunny 52 10.9 25 -4 35 35 SSE 14 22 30.04 1017 10 16 0.00 0.00
1:56 pm 13:56 undefined 55 13 26 -3.3 32 32 SSE 10 17 30.02 1017 10 16 0.00 0.00
2:56 pm 14:56 Sunny 58 14.4 26 -3.4 29 29 SSE 17 28 29.99 1016 10 16 0.00 0.00
3:56 pm 15:56 Sunny 60 15.4 25 -4 26 26 SSE 18 30 29.96 1015 10 16 0.00 0.00
4:56 pm 16:56 Mostly Cloudy 61 16 26 -3.5 26 26 SSE 13 20 29.95 1014 10 16 0.00 0.00
5:56 pm 17:56 Partly Cloudy 59 15.2 27 -2.7 29 29 SSE 16 26 29.94 1014 9 14 0.00 0.00
7:56 pm 19:56 Cloudy 55 12.9 31 -0.7 39 39 SE 13 20 29.93 1014 10 16 0.00 0.00
8:56 pm 20:56 Mostly Cloudy 54 12.1 31 -0.4 42 42 SE 12 19 29.95 1014 10 16 0.00 0.00
9:56 pm 21:56 Cloudy 52 11.2 31 -0.3 45 45 SE 10 17 29.95 1014 10 16 0.00 0.00
10:08 pm 22:08 Cloudy with Light Rain 52 11 32 0 47 47 SE 8 13 29.95 1014 10 16 0.00 0.00
10:56 pm 22:56 Cloudy with Showers 48 9 37 2.6 65 65 SE 9 15 29.96 1014 9 14 0.00 0.00
11:56 pm 23:56 Mostly Cloudy with Light Rain 46 7.7 40 4.6 81 81 Calm 29.95 1014 8 13 0.00 0.00

Powered by AerisWeather